Hatteras, NC

9:44 AM EDT on April 24, 2018 (GMT -0400)
Mitchell

Weather History for KHSE - May, 2014

Change the Weather History Date:

Thursday, May 29, 2014

  Actual Average Record
Temperature  
Mean Temperature 72 °F 71 °F  
Max Temperature 76 °F 77 °F 91 °F (1991)
Min Temperature 68 °F 64 °F 49 °F (1961)
Degree Days  
Heating Degree Days 0 0  
Month to date heating degree days 9 49  
Since 1 July heating degree days 2534 2583  
Cooling Degree Days 7 6  
Month to date cooling degree days 201 103  
Year to date cooling degree days 228 131  
Growing Degree Days 22 (Base 50)    
Moisture  
Dew Point 65 °F    
Average Humidity 79    
Maximum Humidity 90    
Minimum Humidity 68    
Precipitation  
Precipitation 0.00 in 0.11 in 1.45 in (1921)
Month to date precipitation 1.42 3.35  
Year to date precipitation 22.79 21.02  
Snow  
Snow 0.00 in - - ()
Month to date snowfall 0.0  
Since 1 July snowfall 5.7  
Snow Depth 0.00 in    
Sea Level Pressure  
Sea Level Pressure 30.03 in    
Wind  
Wind Speed 9 mph (NE)    
Max Wind Speed 16 mph    
Max Gust Speed 23 mph    
Visibility 10 miles    
Events      
T = Trace of Precipitation, MM = Missing Value Source: NWS Daily Summary

Daily Weather History Graph

Daily Weather History Graph

Search for Another Location

Airport or City:

Astronomy

May. 29, 2014 Rise Set
Actual Time 5:50 AM EDT 8:09 PM EDT
Civil Twilight 5:21 AM EDT 8:39 PM EDT
Nautical Twilight 4:45 AM EDT 9:14 PM EDT
Astronomical Twilight 4:06 AM EDT 9:54 PM EDT
Moon 6:39 AM EDT (5/29) 9:00 PM EDT (5/29)
Length of Visible Light 15h 17m
Length of Day
14h 19m
New Moon, 1% of the Moon is Illuminated
May 29
New Moon
Jun 5
First Quarter
Jun 13
Full
Jun 19
Last Quarter
Jun 27
New

Hourly Weather History & Observations

Time (EDT) Temp. Dew Point Humidity Pressure Visibility Wind Dir Wind Speed Gust Speed Precip Events Conditions
12:51 AM 75.0 °F 71.1 °F 87% 29.98 in 7.0 mi NE 8.1 mph - N/A   Partly Cloudy
12:58 AM 75.0 °F 71.1 °F 87% 29.97 in 8.0 mi WNW 5.8 mph - N/A   Scattered Clouds
1:51 AM 73.0 °F 66.0 °F 79% 29.97 in 10.0 mi ENE 5.8 mph - N/A   Partly Cloudy
2:51 AM 71.1 °F 64.9 °F 81% 29.97 in 10.0 mi ENE 4.6 mph - N/A   Clear
3:28 AM 73.0 °F 66.9 °F 81% 29.99 in 10.0 mi NE 11.5 mph 18.4 mph N/A   Mostly Cloudy
3:35 AM 73.0 °F 66.9 °F 81% 29.99 in 9.0 mi NE 10.4 mph 21.9 mph N/A   Overcast
3:46 AM 71.6 °F 66.2 °F 83% 29.99 in 8.0 mi ENE 9.2 mph 21.9 mph N/A   Overcast
3:51 AM 71.1 °F 66.9 °F 87% 30.00 in 8.0 mi NE 11.5 mph 21.9 mph N/A   Overcast
4:51 AM 69.1 °F 64.9 °F 87% 29.99 in 9.0 mi ENE 8.1 mph - N/A   Overcast
5:12 AM 69.1 °F 64.9 °F 87% 29.99 in 10.0 mi East 6.9 mph - N/A   Scattered Clouds
5:51 AM 69.1 °F 64.9 °F 87% 30.00 in 9.0 mi East 6.9 mph - N/A   Clear
6:51 AM 70.0 °F 66.9 °F 90% 30.00 in 7.0 mi NE 8.1 mph - N/A   Clear
7:05 AM 70.0 °F 66.0 °F 87% 30.01 in 8.0 mi NE 9.2 mph 16.1 mph N/A   Scattered Clouds
7:14 AM 70.0 °F 66.0 °F 87% 30.01 in 10.0 mi ENE 8.1 mph 16.1 mph N/A   Mostly Cloudy
7:39 AM 70.0 °F 66.0 °F 87% 30.02 in 10.0 mi NE 6.9 mph - N/A   Scattered Clouds
7:51 AM 71.1 °F 66.0 °F 84% 30.03 in 10.0 mi NE 8.1 mph - N/A   Scattered Clouds
8:51 AM 73.0 °F 66.0 °F 79% 30.05 in 10.0 mi NE 11.5 mph 19.6 mph N/A   Scattered Clouds
9:02 AM 72.0 °F 66.0 °F 81% 30.05 in 10.0 mi ENE 10.4 mph 16.1 mph N/A   Mostly Cloudy
9:51 AM 75.0 °F 66.0 °F 73% 30.05 in 10.0 mi NE 10.4 mph - N/A   Mostly Cloudy
10:07 AM 73.4 °F 66.2 °F 78% 30.05 in 10.0 mi NNE 11.5 mph - N/A   Scattered Clouds
10:18 AM 73.9 °F 64.9 °F 73% 30.05 in 10.0 mi NE 11.5 mph 20.7 mph N/A   Partly Cloudy
10:51 AM 73.9 °F 64.9 °F 73% 30.07 in 10.0 mi NNE 11.5 mph 21.9 mph N/A   Partly Cloudy
11:51 AM 75.0 °F 64.0 °F 69% 30.08 in 10.0 mi NE 12.7 mph 18.4 mph N/A   Scattered Clouds
12:51 PM 75.0 °F 64.0 °F 69% 30.09 in 10.0 mi NE 10.4 mph 20.7 mph N/A   Mostly Cloudy
1:51 PM 75.0 °F 64.0 °F 69% 30.09 in 10.0 mi NE 10.4 mph 20.7 mph N/A   Overcast
2:51 PM 73.0 °F 64.0 °F 73% 30.09 in 10.0 mi NE 11.5 mph 21.9 mph N/A   Scattered Clouds
3:51 PM 73.0 °F 63.0 °F 71% 30.07 in 10.0 mi NE 11.5 mph 19.6 mph N/A   Scattered Clouds
4:51 PM 71.1 °F 62.1 °F 73% 30.06 in 10.0 mi NE 10.4 mph 21.9 mph N/A   Mostly Cloudy
5:51 PM 71.1 °F 63.0 °F 75% 30.05 in 10.0 mi ENE 11.5 mph 20.7 mph N/A   Scattered Clouds
6:51 PM 70.0 °F 62.1 °F 76% 30.06 in 10.0 mi ENE 10.4 mph 17.3 mph N/A   Mostly Cloudy
7:51 PM 69.1 °F 62.1 °F 78% 30.08 in 10.0 mi NE 9.2 mph - N/A   Mostly Cloudy
8:51 PM 68.0 °F 62.1 °F 81% 30.07 in 10.0 mi NE 8.1 mph - N/A   Scattered Clouds
9:51 PM 68.0 °F 63.0 °F 84% 30.08 in 10.0 mi NE 6.9 mph - N/A   Mostly Cloudy
10:51 PM 68.0 °F 62.1 °F 81% 30.08 in 10.0 mi Variable 5.8 mph - N/A   Mostly Cloudy
11:51 PM 68.0 °F 62.1 °F 81% 30.08 in 10.0 mi NE 8.1 mph - N/A   Scattered Clouds